Tracking 30306 objects as of 24-Apr-2025
HD Live streaming from Space Station
objects crossing your sky now

THORAD DELTA 1 DEB

Track THORAD DELTA 1 DEB now!
10-day predictions


NORAD ID: 42602
Int'l Code: 1974-089FT
Perigee: 1,379.7 km
Apogee: 1,898.0 km
Inclination: 101.4 °
Period: 118.9 minutes
Semi major axis: 8009 km
RCS: Unknown
Launch date: November 15, 1974
Source: United States (US)
Launch site: AIR FORCE WESTERN TEST RANGE (AFWTR)

Note: This is SATELLITE DEBRIS
Your satellite tracking list
Your tracking list is empty




NASA's NSSDC Master Catalog

Two Line Element Set (TLE):
1 42602U 74089FT  25108.81718558  .00000411  00000-0  41226-2 0  9994
2 42602 101.4016 108.5832 0323535 149.7696 212.2459 12.11059514918731
Source of the keplerian elements: AFSPC